QPF
0.00 0.00 0.00 0.00 0.00 0.00 0.00 0.00 0.00 0.00 0.00 0.00 0.00 0.00 0.00 0.00 0.00 0.02 0.01 0.00 0.01 0.01 0.02 0.02 0.03 0.04 0.03 0.03 0.04 0.05 0.05 0.04 0.04 0.03 0.03 0.03 0.03 0.03 0.03 0.04 0.04 0.04 0.04 0.05 0.04 0.03 0.04 0.03 0.02
0.00 0.00 0.00 0.00 0.00 0.00 0.00 0.00 0.00 0.00 0.00 0.00 0.00 0.00 0.00 0.00 0.00 0.00 0.00 0.00 0.01 0.01 0.02 0.03 0.03 0.04 0.04 0.04 0.04 0.05 0.05 0.04 0.05 0.04 0.03 0.03 0.02 0.03 0.04 0.05 0.04 0.04 0.04 0.05 0.03 0.02 0.03 0.03 0.02
0.01 0.01 0.01 0.01 0.00 0.00 0.00 0.00 0.00 0.00 0.00 0.00 0.00 0.00 0.00 0.00 0.00 0.00 0.00 0.01 0.01 0.02 0.02 0.04 0.05 0.05 0.05 0.06 0.06 0.07 0.06 0.04 0.05 0.05 0.05 0.05 0.04 0.03 0.04 0.05 0.05 0.06 0.06 0.05 0.04 0.03 0.02 0.01 0.02
0.01 0.01 0.01 0.01 0.00 0.00 0.00 0.00 0.00 0.00 0.00 0.00 0.00 0.00 0.00 0.00 0.00 0.00 0.00 0.01 0.02 0.03 0.03 0.05 0.06 0.06 0.07 0.07 0.08 0.08 0.08 0.05 0.06 0.05 0.04 0.05 0.05 0.04 0.04 0.04 0.05 0.05 0.05 0.04 0.03 0.03 0.02 0.02 0.02
0.02 0.02 0.01 0.00 0.00 0.00 0.00 0.00 0.00 0.00 0.00 0.00 0.00 0.00 0.00 0.00 0.00 0.00 0.01 0.01 0.02 0.04 0.04 0.04 0.06 0.07 0.08 0.08 0.10 0.10 0.10 0.07 0.06 0.05 0.05 0.05 0.05 0.04 0.04 0.04 0.04 0.03 0.03 0.03 0.04 0.03 0.02 0.02 0.03
0.03 0.02 0.01 0.00 0.00 0.00 0.00 0.00 0.00 0.00 0.00 0.00 0.00 0.00 0.00 0.00 0.01 0.00 0.01 0.01 0.03 0.04 0.04 0.05 0.06 0.07 0.08 0.09 0.10 0.11 0.10 0.08 0.07 0.06 0.07 0.07 0.05 0.04 0.04 0.04 0.03 0.03 0.03 0.03 0.04 0.04 0.03 0.03 0.03
0.03 0.03 0.01 0.00 0.00 0.00 0.00 0.00 0.00 0.00 0.00 0.00 0.00 0.00 0.00 0.01 0.01 0.01 0.01 0.01 0.01 0.02 0.03 0.04 0.05 0.04 0.05 0.08 0.10 0.11 0.09 0.09 0.08 0.08 0.08 0.07 0.06 0.06 0.05 0.05 0.04 0.03 0.03 0.04 0.04 0.04 0.02 0.02 0.03
0.02 0.03 0.02 0.01 0.00 0.00 0.00 0.00 0.00 0.00 0.00 0.00 0.00 0.00 0.00 0.01 0.01 0.01 0.01 0.01 0.01 0.01 0.03 0.04 0.04 0.04 0.05 0.08 0.10 0.11 0.11 0.09 0.11 0.10 0.08 0.08 0.06 0.06 0.06 0.05 0.04 0.03 0.03 0.03 0.04 0.04 0.02 0.02 0.01
0.02 0.03 0.02 0.00 0.00 0.00 0.00 0.00 0.00 0.00 0.01 0.01 0.00 0.00 0.00 0.01 0.01 0.01 0.02 0.03 0.02 0.02 0.03 0.04 0.06 0.05 0.05 0.06 0.09 0.11 0.12 0.12 0.11 0.11 0.09 0.08 0.08 0.07 0.06 0.05 0.03 0.02 0.02 0.04 0.04 0.04 0.03 0.02 0.01
0.02 0.02 0.01 0.00 0.00 0.00 0.00 0.00 0.00 0.00 0.00 0.01 0.00 0.00 0.00 0.01 0.01 0.02 0.03 0.03 0.03 0.03 0.03 0.04 0.06 0.06 0.06 0.07 0.09 0.11 0.11 0.13 0.11 0.10 0.09 0.09 0.09 0.09 0.07 0.06 0.04 0.03 0.03 0.04 0.04 0.04 0.03 0.02 0.02
0.02 0.01 0.01 0.01 0.00 0.00 0.00 0.00 0.01 0.00 0.01 0.02 0.01 0.00 0.00 0.01 0.01 0.02 0.03 0.03 0.03 0.04 0.05 0.04 0.05 0.07 0.08 0.07 0.08 0.11 0.12 0.12 0.13 0.11 0.09 0.09 0.10 0.10 0.08 0.07 0.06 0.05 0.04 0.05 0.04 0.04 0.04 0.03 0.03
0.02 0.01 0.01 0.01 0.00 0.00 0.00 0.01 0.01 0.01 0.00 0.01 0.01 0.00 0.01 0.01 0.02 0.01 0.02 0.02 0.03 0.05 0.06 0.07 0.07 0.08 0.08 0.07 0.08 0.09 0.10 0.11 0.12 0.12 0.10 0.09 0.09 0.10 0.08 0.06 0.05 0.05 0.05 0.04 0.04 0.04 0.04 0.03 0.03
0.02 0.01 0.01 0.01 0.00 0.00 0.00 0.00 0.00 0.00 0.00 0.00 0.00 0.00 0.01 0.02 0.02 0.02 0.02 0.01 0.02 0.04 0.06 0.08 0.09 0.10 0.10 0.09 0.09 0.10 0.09 0.10 0.11 0.12 0.10 0.09 0.09 0.10 0.09 0.07 0.07 0.07 0.06 0.05 0.05 0.04 0.04 0.04 0.03
0.02 0.01 0.01 0.01 0.00 0.00 0.00 0.00 0.00 0.00 0.00 0.00 0.01 0.01 0.01 0.01 0.02 0.02 0.02 0.01 0.01 0.02 0.03 0.06 0.08 0.10 0.12 0.12 0.11 0.11 0.10 0.09 0.09 0.10 0.11 0.10 0.09 0.09 0.09 0.09 0.09 0.10 0.09 0.08 0.07 0.05 0.05 0.04 0.03
0.01 0.01 0.01 0.01 0.01 0.01 0.00 0.00 0.00 0.00 0.00 0.00 0.01 0.01 0.01 0.01 0.01 0.02 0.01 0.01 0.01 0.01 0.02 0.04 0.06 0.09 0.11 0.13 0.14 0.13 0.13 0.09 0.08 0.08 0.09 0.09 0.08 0.08 0.09 0.08 0.08 0.09 0.10 0.10 0.10 0.09 0.07 0.06 0.04
0.01 0.01 0.02 0.01 0.01 0.01 0.01 0.00 0.00 0.00 0.00 0.00 0.01 0.01 0.01 0.01 0.01 0.01 0.01 0.01 0.01 0.01 0.02 0.03 0.05 0.08 0.10 0.12 0.15 0.14 0.14 0.11 0.07 0.07 0.07 0.08 0.08 0.07 0.07 0.08 0.08 0.08 0.10 0.10 0.10 0.11 0.09 0.08 0.06
0.01 0.01 0.01 0.01 0.01 0.01 0.01 0.01 0.00 0.00 0.00 0.00 0.01 0.01 0.01 0.01 0.01 0.01 0.01 0.02 0.02 0.02 0.02 0.03 0.04 0.07 0.11 0.10 0.13 0.14 0.14 0.12 0.08 0.06 0.05 0.06 0.08 0.08 0.07 0.07 0.07 0.06 0.07 0.09 0.10 0.10 0.11 0.09 0.06
0.02 0.01 0.01 0.01 0.01 0.01 0.01 0.01 0.00 0.00 0.00 0.00 0.01 0.01 0.01 0.01 0.01 0.01 0.01 0.02 0.02 0.03 0.03 0.04 0.05 0.07 0.12 0.14 0.13 0.15 0.14 0.11 0.08 0.07 0.05 0.05 0.08 0.08 0.06 0.06 0.07 0.06 0.06 0.06 0.06 0.07 0.07 0.07 0.08
0.00 0.01 0.01 0.01 0.01 0.01 0.01 0.01 0.01 0.01 0.00 0.01 0.01 0.02 0.01 0.01 0.01 0.01 0.01 0.02 0.02 0.03 0.03 0.03 0.05 0.08 0.12 0.16 0.14 0.13 0.12 0.11 0.08 0.06 0.05 0.05 0.06 0.09 0.07 0.05 0.04 0.04 0.06 0.07 0.07 0.07 0.07 0.06 0.07
0.00 0.01 0.01 0.01 0.01 0.01 0.02 0.02 0.02 0.01 0.01 0.01 0.01 0.01 0.01 0.01 0.01 0.01 0.02 0.03 0.03 0.03 0.04 0.04 0.04 0.09 0.12 0.15 0.14 0.12 0.11 0.10 0.09 0.06 0.05 0.05 0.05 0.08 0.08 0.05 0.04 0.03 0.03 0.04 0.06 0.06 0.07 0.08 0.07
0.01 0.01 0.01 0.01 0.01 0.01 0.03 0.04 0.03 0.02 0.02 0.02 0.02 0.02 0.02 0.01 0.01 0.01 0.02 0.06 0.05 0.04 0.04 0.05 0.05 0.09 0.12 0.13 0.14 0.14 0.13 0.12 0.08 0.07 0.05 0.04 0.04 0.07 0.10 0.07 0.04 0.04 0.03 0.03 0.03 0.03 0.03 0.05 0.07
0.02 0.01 0.01 0.01 0.02 0.02 0.03 0.06 0.04 0.03 0.02 0.03 0.04 0.04 0.03 0.02 0.01 0.01 0.03 0.06 0.05 0.06 0.05 0.05 0.07 0.10 0.11 0.13 0.12 0.11 0.14 0.14 0.09 0.06 0.05 0.06 0.05 0.04 0.08 0.09 0.06 0.04 0.03 0.04 0.04 0.03 0.03 0.03 0.04
0.01 0.01 0.01 0.01 0.02 0.02 0.03 0.04 0.03 0.02 0.03 0.03 0.04 0.05 0.05 0.05 0.03 0.04 0.05 0.05 0.05 0.05 0.06 0.06 0.08 0.10 0.11 0.13 0.12 0.08 0.11 0.14 0.12 0.07 0.05 0.06 0.07 0.05 0.05 0.08 0.08 0.05 0.03 0.03 0.03 0.03 0.03 0.03 0.03
0.00 0.01 0.01 0.01 0.02 0.04 0.03 0.04 0.05 0.04 0.04 0.03 0.03 0.03 0.03 0.04 0.06 0.05 0.05 0.04 0.04 0.06 0.07 0.08 0.09 0.11 0.11 0.13 0.11 0.10 0.10 0.11 0.12 0.09 0.06 0.06 0.08 0.08 0.05 0.06 0.08 0.07 0.05 0.04 0.03 0.03 0.03 0.03 0.04
0.01 0.02 0.03 0.04 0.04 0.04 0.02 0.05 0.07 0.07 0.05 0.04 0.03 0.02 0.02 0.03 0.04 0.05 0.05 0.03 0.04 0.06 0.09 0.09 0.11 0.13 0.13 0.12 0.09 0.11 0.14 0.13 0.11 0.10 0.08 0.07 0.07 0.10 0.09 0.07 0.08 0.07 0.06 0.05 0.04 0.04 0.04 0.04 0.04
0.01 0.02 0.03 0.03 0.02 0.02 0.02 0.05 0.08 0.07 0.05 0.03 0.02 0.02 0.01 0.02 0.03 0.03 0.04 0.04 0.04 0.05 0.08 0.09 0.10 0.12 0.14 0.12 0.09 0.09 0.13 0.16 0.14 0.12 0.10 0.08 0.07 0.08 0.09 0.07 0.07 0.05 0.05 0.04 0.04 0.03 0.03 0.03 0.03
0.01 0.02 0.02 0.02 0.01 0.02 0.03 0.03 0.02 0.02 0.03 0.03 0.02 0.02 0.02 0.02 0.02 0.04 0.04 0.04 0.05 0.05 0.06 0.08 0.10 0.11 0.12 0.12 0.10 0.10 0.11 0.12 0.12 0.11 0.11 0.09 0.08 0.08 0.07 0.07 0.06 0.05 0.03 0.02 0.02 0.02 0.02 0.02 0.02
0.01 0.01 0.01 0.03 0.03 0.02 0.02 0.02 0.03 0.03 0.04 0.05 0.04 0.03 0.02 0.02 0.03 0.05 0.04 0.04 0.05 0.04 0.05 0.08 0.09 0.10 0.09 0.09 0.09 0.10 0.10 0.10 0.11 0.11 0.10 0.09 0.09 0.09 0.07 0.06 0.06 0.06 0.05 0.03 0.02 0.02 0.02 0.02 0.02
0.01 0.01 0.01 0.02 0.03 0.03 0.03 0.04 0.05 0.04 0.05 0.06 0.06 0.04 0.03 0.03 0.03 0.04 0.04 0.04 0.04 0.05 0.06 0.07 0.09 0.09 0.08 0.08 0.08 0.08 0.09 0.09 0.09 0.09 0.09 0.09 0.09 0.09 0.09 0.07 0.06 0.06 0.05 0.04 0.04 0.03 0.03 0.02 0.03
0.00 0.01 0.01 0.03 0.03 0.02 0.03 0.04 0.03 0.02 0.03 0.05 0.06 0.05 0.04 0.03 0.03 0.05 0.04 0.04 0.04 0.05 0.05 0.06 0.08 0.07 0.07 0.06 0.06 0.07 0.08 0.09 0.09 0.09 0.09 0.09 0.08 0.08 0.09 0.09 0.08 0.08 0.06 0.05 0.05 0.04 0.04 0.03 0.02
MSLP
1013.60 1013.45 1013.66 1014.19 1014.97 1015.85 1016.69 1017.34 1017.72 1017.81 1017.70 1017.51 1017.41 1017.52 1017.91 1018.59 1019.45 1020.33 1021.07 1021.51 1021.55 1021.18 1020.46 1019.52 1018.52 1017.60 1016.87 1016.39 1016.14 1016.08 1016.16 1016.29 1016.45 1016.59 1016.72 1016.85 1016.99 1017.14 1017.30 1017.45 1017.59 1017.71 1017.80 1017.88 1017.96 1018.06 1018.18 1018.31 1018.44
1013.75 1013.71 1014.05 1014.72 1015.64 1016.66 1017.60 1018.35 1018.81 1018.99 1018.96 1018.85 1018.82 1018.97 1019.36 1019.99 1020.75 1021.50 1022.07 1022.34 1022.23 1021.74 1020.94 1019.96 1018.94 1018.01 1017.27 1016.76 1016.47 1016.36 1016.36 1016.44 1016.55 1016.67 1016.81 1016.97 1017.14 1017.34 1017.53 1017.71 1017.86 1017.97 1018.05 1018.12 1018.20 1018.30 1018.42 1018.57 1018.71
1013.98 1014.06 1014.53 1015.33 1016.36 1017.47 1018.49 1019.30 1019.84 1020.09 1020.14 1020.12 1020.16 1020.35 1020.73 1021.30 1021.95 1022.55 1022.95 1023.06 1022.82 1022.24 1021.41 1020.43 1019.43 1018.53 1017.80 1017.27 1016.93 1016.73 1016.64 1016.62 1016.64 1016.70 1016.80 1016.96 1017.16 1017.40 1017.64 1017.87 1018.05 1018.19 1018.29 1018.36 1018.44 1018.54 1018.66 1018.81 1018.97
1014.33 1014.54 1015.14 1016.05 1017.15 1018.31 1019.36 1020.21 1020.78 1021.09 1021.22 1021.27 1021.37 1021.60 1021.97 1022.47 1023.00 1023.46 1023.71 1023.68 1023.34 1022.72 1021.89 1020.95 1020.02 1019.18 1018.48 1017.94 1017.53 1017.24 1017.01 1016.84 1016.73 1016.68 1016.72 1016.85 1017.07 1017.34 1017.65 1017.95 1018.21 1018.40 1018.54 1018.65 1018.73 1018.83 1018.95 1019.09 1019.24
1014.82 1015.19 1015.92 1016.91 1018.06 1019.23 1020.28 1021.11 1021.68 1022.02 1022.20 1022.31 1022.46 1022.70 1023.06 1023.48 1023.91 1024.22 1024.34 1024.20 1023.80 1023.17 1022.39 1021.54 1020.70 1019.95 1019.30 1018.74 1018.27 1017.85 1017.47 1017.13 1016.85 1016.67 1016.61 1016.70 1016.92 1017.24 1017.63 1018.02 1018.37 1018.65 1018.86 1019.01 1019.12 1019.21 1019.31 1019.42 1019.54
1015.52 1016.06 1016.91 1017.97 1019.14 1020.28 1021.27 1022.05 1022.60 1022.93 1023.13 1023.28 1023.45 1023.70 1024.02 1024.36 1024.67 1024.86 1024.86 1024.64 1024.20 1023.60 1022.90 1022.16 1021.45 1020.79 1020.19 1019.64 1019.10 1018.55 1018.01 1017.48 1017.03 1016.70 1016.53 1016.56 1016.78 1017.15 1017.61 1018.11 1018.57 1018.95 1019.25 1019.45 1019.58 1019.66 1019.73 1019.80 1019.88
1016.45 1017.16 1018.13 1019.25 1020.40 1021.48 1022.39 1023.09 1023.57 1023.87 1024.06 1024.22 1024.40 1024.63 1024.89 1025.15 1025.34 1025.41 1025.30 1025.01 1024.56 1024.01 1023.39 1022.77 1022.18 1021.63 1021.09 1020.54 1019.95 1019.29 1018.60 1017.90 1017.28 1016.81 1016.54 1016.50 1016.70 1017.10 1017.64 1018.23 1018.79 1019.28 1019.66 1019.92 1020.07 1020.15 1020.18 1020.20 1020.21
1017.60 1018.48 1019.54 1020.69 1021.81 1022.80 1023.61 1024.20 1024.61 1024.86 1025.03 1025.17 1025.34 1025.53 1025.72 1025.88 1025.96 1025.90 1025.69 1025.34 1024.89 1024.37 1023.84 1023.34 1022.87 1022.41 1021.93 1021.39 1020.75 1020.01 1019.20 1018.37 1017.61 1017.01 1016.64 1016.54 1016.71 1017.12 1017.69 1018.35 1019.00 1019.57 1020.03 1020.34 1020.52 1020.60 1020.60 1020.56 1020.53
1018.94 1019.95 1021.09 1022.23 1023.29 1024.17 1024.86 1025.35 1025.66 1025.86 1026.00 1026.13 1026.26 1026.41 1026.53 1026.59 1026.54 1026.37 1026.07 1025.66 1025.20 1024.71 1024.25 1023.84 1023.46 1023.08 1022.65 1022.12 1021.46 1020.66 1019.77 1018.85 1017.99 1017.29 1016.84 1016.67 1016.79 1017.17 1017.74 1018.43 1019.12 1019.75 1020.26 1020.62 1020.84 1020.93 1020.92 1020.86 1020.79
1020.42 1021.51 1022.66 1023.75 1024.71 1025.48 1026.04 1026.41 1026.65 1026.80 1026.91 1027.03 1027.14 1027.24 1027.29 1027.26 1027.11 1026.83 1026.44 1025.98 1025.50 1025.03 1024.62 1024.26 1023.94 1023.61 1023.21 1022.70 1022.03 1021.21 1020.27 1019.30 1018.38 1017.62 1017.09 1016.85 1016.90 1017.22 1017.75 1018.40 1019.09 1019.74 1020.29 1020.70 1020.97 1021.09 1021.11 1021.07 1020.99
1021.94 1023.05 1024.15 1025.14 1025.96 1026.58 1027.00 1027.28 1027.45 1027.57 1027.68 1027.79 1027.90 1027.97 1027.97 1027.86 1027.63 1027.27 1026.81 1026.31 1025.80 1025.34 1024.94 1024.62 1024.32 1024.01 1023.63 1023.11 1022.44 1021.62 1020.68 1019.69 1018.75 1017.95 1017.36 1017.04 1017.00 1017.22 1017.66 1018.24 1018.89 1019.53 1020.10 1020.56 1020.89 1021.09 1021.17 1021.19 1021.16
1023.44 1024.48 1025.46 1026.29 1026.93 1027.38 1027.67 1027.84 1027.97 1028.08 1028.20 1028.34 1028.46 1028.53 1028.51 1028.36 1028.07 1027.66 1027.16 1026.63 1026.11 1025.64 1025.25 1024.92 1024.62 1024.30 1023.90 1023.38 1022.71 1021.89 1020.96 1019.99 1019.05 1018.23 1017.60 1017.20 1017.05 1017.15 1017.46 1017.94 1018.51 1019.12 1019.70 1020.21 1020.63 1020.94 1021.14 1021.26 1021.32
1024.85 1025.75 1026.53 1027.15 1027.57 1027.83 1027.98 1028.07 1028.16 1028.28 1028.45 1028.63 1028.79 1028.88 1028.86 1028.70 1028.39 1027.96 1027.45 1026.92 1026.39 1025.93 1025.52 1025.18 1024.85 1024.49 1024.06 1023.51 1022.83 1022.02 1021.12 1020.17 1019.25 1018.43 1017.75 1017.27 1017.02 1016.99 1017.16 1017.52 1018.01 1018.57 1019.17 1019.74 1020.26 1020.71 1021.06 1021.32 1021.51
1026.13 1026.83 1027.38 1027.73 1027.92 1027.98 1027.98 1027.99 1028.06 1028.20 1028.41 1028.66 1028.87 1029.01 1029.01 1028.87 1028.58 1028.16 1027.67 1027.15 1026.64 1026.17 1025.76 1025.38 1025.01 1024.60 1024.12 1023.53 1022.83 1022.02 1021.14 1020.22 1019.33 1018.50 1017.80 1017.25 1016.89 1016.74 1016.79 1017.03 1017.43 1017.97 1018.58 1019.23 1019.88 1020.47 1020.99 1021.41 1021.76
1027.29 1027.77 1028.04 1028.13 1028.07 1027.93 1027.79 1027.72 1027.77 1027.94 1028.20 1028.51 1028.78 1028.96 1029.01 1028.90 1028.64 1028.25 1027.79 1027.30 1026.81 1026.36 1025.93 1025.52 1025.09 1024.62 1024.08 1023.44 1022.71 1021.90 1021.03 1020.14 1019.26 1018.44 1017.71 1017.11 1016.67 1016.42 1016.36 1016.51 1016.85 1017.37 1018.02 1018.76 1019.53 1020.28 1020.96 1021.55 1022.03
1028.36 1028.60 1028.62 1028.44 1028.15 1027.83 1027.56 1027.43 1027.46 1027.65 1027.95 1028.30 1028.62 1028.84 1028.92 1028.84 1028.61 1028.25 1027.82 1027.36 1026.90 1026.44 1026.00 1025.56 1025.08 1024.55 1023.94 1023.25 1022.49 1021.67 1020.81 1019.93 1019.07 1018.24 1017.50 1016.86 1016.36 1016.03 1015.90 1015.99 1016.31 1016.83 1017.53 1018.36 1019.24 1020.13 1020.96 1021.69 1022.30
1029.36 1029.40 1029.19 1028.80 1028.31 1027.83 1027.46 1027.27 1027.27 1027.46 1027.79 1028.16 1028.50 1028.74 1028.84 1028.77 1028.55 1028.21 1027.79 1027.34 1026.88 1026.42 1025.96 1025.48 1024.95 1024.36 1023.70 1022.97 1022.18 1021.34 1020.48 1019.60 1018.75 1017.92 1017.16 1016.49 1015.95 1015.58 1015.40 1015.47 1015.79 1016.34 1017.09 1018.00 1019.00 1020.00 1020.95 1021.79 1022.49
1030.34 1030.22 1029.84 1029.28 1028.64 1028.05 1027.60 1027.35 1027.33 1027.52 1027.83 1028.20 1028.54 1028.77 1028.84 1028.76 1028.52 1028.16 1027.73 1027.27 1026.78 1026.30 1025.80 1025.27 1024.69 1024.06 1023.36 1022.60 1021.78 1020.93 1020.06 1019.19 1018.32 1017.49 1016.71 1016.01 1015.44 1015.04 1014.85 1014.92 1015.25 1015.85 1016.66 1017.65 1018.73 1019.82 1020.86 1021.77 1022.54
1031.30 1031.07 1030.58 1029.92 1029.20 1028.54 1028.03 1027.75 1027.69 1027.85 1028.14 1028.48 1028.77 1028.96 1028.99 1028.85 1028.56 1028.16 1027.68 1027.16 1026.62 1026.08 1025.52 1024.94 1024.32 1023.65 1022.92 1022.14 1021.32 1020.47 1019.59 1018.71 1017.83 1016.97 1016.16 1015.43 1014.83 1014.40 1014.21 1014.29 1014.65 1015.29 1016.17 1017.22 1018.37 1019.52 1020.62 1021.58 1022.40
1032.25 1031.97 1031.43 1030.73 1029.98 1029.29 1028.75 1028.44 1028.35 1028.46 1028.69 1028.97 1029.20 1029.31 1029.27 1029.06 1028.70 1028.21 1027.65 1027.04 1026.42 1025.79 1025.15 1024.51 1023.85 1023.15 1022.41 1021.63 1020.82 1019.97 1019.10 1018.20 1017.29 1016.39 1015.53 1014.76 1014.12 1013.67 1013.46 1013.55 1013.94 1014.62 1015.55 1016.65 1017.85 1019.05 1020.18 1021.19 1022.03
1033.17 1032.89 1032.36 1031.67 1030.93 1030.24 1029.70 1029.35 1029.21 1029.26 1029.42 1029.61 1029.76 1029.79 1029.66 1029.36 1028.91 1028.32 1027.64 1026.92 1026.18 1025.45 1024.72 1024.01 1023.29 1022.58 1021.84 1021.08 1020.29 1019.46 1018.59 1017.68 1016.74 1015.79 1014.87 1014.03 1013.33 1012.84 1012.61 1012.70 1013.11 1013.82 1014.78 1015.92 1017.16 1018.40 1019.56 1020.59 1021.47
1034.05 1033.80 1033.32 1032.68 1031.99 1031.32 1030.78 1030.40 1030.20 1030.17 1030.23 1030.32 1030.36 1030.29 1030.07 1029.68 1029.12 1028.43 1027.64 1026.79 1025.92 1025.06 1024.24 1023.44 1022.68 1021.95 1021.23 1020.49 1019.74 1018.94 1018.08 1017.15 1016.17 1015.17 1014.18 1013.27 1012.51 1011.96 1011.70 1011.77 1012.17 1012.90 1013.88 1015.05 1016.31 1017.58 1018.78 1019.85 1020.77
1034.88 1034.69 1034.29 1033.73 1033.09 1032.46 1031.91 1031.49 1031.22 1031.08 1031.02 1031.00 1030.93 1030.75 1030.44 1029.95 1029.29 1028.49 1027.58 1026.61 1025.61 1024.63 1023.70 1022.82 1022.02 1021.27 1020.55 1019.85 1019.14 1018.37 1017.53 1016.60 1015.59 1014.54 1013.49 1012.51 1011.68 1011.07 1010.77 1010.81 1011.21 1011.93 1012.92 1014.11 1015.40 1016.69 1017.92 1019.04 1020.01
1035.67 1035.56 1035.24 1034.77 1034.20 1033.60 1033.04 1032.57 1032.20 1031.94 1031.76 1031.59 1031.39 1031.11 1030.69 1030.11 1029.36 1028.46 1027.44 1026.35 1025.23 1024.14 1023.10 1022.14 1021.28 1020.51 1019.80 1019.13 1018.45 1017.71 1016.89 1015.97 1014.95 1013.86 1012.77 1011.74 1010.86 1010.21 1009.88 1009.90 1010.28 1011.00 1011.99 1013.19 1014.48 1015.80 1017.07 1018.22 1019.24
1036.41 1036.38 1036.17 1035.79 1035.30 1034.73 1034.16 1033.62 1033.14 1032.75 1032.41 1032.09 1031.75 1031.34 1030.81 1030.13 1029.30 1028.31 1027.19 1026.00 1024.77 1023.57 1022.43 1021.39 1020.47 1019.66 1018.95 1018.28 1017.61 1016.90 1016.10 1015.19 1014.17 1013.08 1011.98 1010.94 1010.05 1009.40 1009.05 1009.07 1009.45 1010.17 1011.16 1012.36 1013.66 1014.99 1016.28 1017.46 1018.53
1037.11 1037.18 1037.07 1036.79 1036.36 1035.83 1035.23 1034.63 1034.05 1033.50 1033.00 1032.52 1032.02 1031.47 1030.82 1030.04 1029.12 1028.04 1026.84 1025.55 1024.23 1022.93 1021.70 1020.57 1019.58 1018.71 1017.95 1017.26 1016.58 1015.87 1015.08 1014.18 1013.19 1012.13 1011.06 1010.06 1009.21 1008.61 1008.30 1008.36 1008.76 1009.49 1010.48 1011.67 1012.97 1014.30 1015.59 1016.79 1017.88
1037.76 1037.91 1037.90 1037.71 1037.36 1036.86 1036.26 1035.60 1034.91 1034.23 1033.57 1032.92 1032.26 1031.56 1030.78 1029.89 1028.86 1027.70 1026.42 1025.05 1023.64 1022.25 1020.92 1019.70 1018.62 1017.66 1016.82 1016.06 1015.33 1014.58 1013.78 1012.89 1011.93 1010.93 1009.94 1009.04 1008.29 1007.79 1007.59 1007.72 1008.18 1008.94 1009.95 1011.13 1012.42 1013.72 1014.99 1016.19 1017.28
1038.32 1038.55 1038.63 1038.52 1038.24 1037.78 1037.19 1036.49 1035.72 1034.93 1034.13 1033.33 1032.51 1031.66 1030.74 1029.73 1028.60 1027.35 1025.99 1024.55 1023.07 1021.59 1020.17 1018.84 1017.64 1016.56 1015.60 1014.71 1013.88 1013.05 1012.19 1011.30 1010.37 1009.45 1008.57 1007.81 1007.23 1006.89 1006.84 1007.10 1007.67 1008.49 1009.53 1010.71 1011.96 1013.24 1014.47 1015.63 1016.69
1038.78 1039.05 1039.18 1039.15 1038.92 1038.52 1037.95 1037.25 1036.45 1035.59 1034.69 1033.76 1032.81 1031.82 1030.78 1029.65 1028.42 1027.08 1025.65 1024.14 1022.58 1021.03 1019.51 1018.06 1016.72 1015.48 1014.34 1013.29 1012.29 1011.32 1010.37 1009.44 1008.53 1007.68 1006.94 1006.36 1005.99 1005.87 1006.02 1006.45 1007.15 1008.06 1009.14 1010.32 1011.55 1012.78 1013.96 1015.07 1016.09
1039.10 1039.37 1039.52 1039.51 1039.34 1038.99 1038.47 1037.80 1037.02 1036.14 1035.19 1034.20 1033.16 1032.07 1030.91 1029.69 1028.37 1026.95 1025.46 1023.89 1022.27 1020.64 1019.03 1017.45 1015.95 1014.53 1013.18 1011.90 1010.69 1009.54 1008.45 1007.44 1006.53 1005.75 1005.14 1004.75 1004.60 1004.71 1005.09 1005.73 1006.58 1007.60 1008.73 1009.92 1011.12 1012.30 1013.42 1014.47 1015.45
Thickness
5694 5698 5701 5695 5680 5674 5678 5692 5702 5702 5704 5708 5712 5712 5705 5697 5691 5680 5687 5694 5697 5698 5699 5699 5701 5702 5703 5704 5704 5704 5704 5705 5705 5705 5706 5706 5705 5705 5705 5705 5705 5705 5705 5704 5704 5704 5704 5703 5702
5689 5693 5690 5681 5668 5664 5675 5690 5691 5694 5698 5703 5705 5704 5699 5689 5687 5683 5685 5688 5691 5692 5693 5694 5695 5697 5698 5699 5699 5699 5699 5700 5700 5701 5701 5701 5701 5701 5701 5701 5701 5701 5701 5700 5700 5699 5699 5699 5698
5683 5685 5676 5669 5665 5665 5674 5685 5685 5689 5694 5693 5690 5690 5685 5678 5678 5676 5679 5683 5685 5685 5686 5687 5689 5691 5693 5693 5694 5694 5694 5695 5695 5696 5696 5697 5697 5697 5697 5697 5697 5696 5696 5696 5695 5695 5695 5695 5694
5674 5671 5667 5658 5657 5670 5676 5679 5680 5680 5682 5684 5680 5674 5671 5669 5670 5670 5674 5677 5677 5679 5679 5680 5682 5684 5686 5688 5688 5689 5689 5689 5690 5690 5691 5691 5692 5692 5692 5692 5692 5692 5691 5691 5691 5690 5690 5690 5690
5664 5657 5650 5648 5655 5666 5672 5673 5674 5670 5670 5671 5669 5663 5657 5659 5663 5664 5667 5669 5670 5671 5672 5673 5675 5677 5679 5681 5682 5683 5684 5684 5684 5685 5685 5686 5686 5687 5687 5687 5687 5687 5686 5686 5686 5686 5686 5685 5686
5649 5648 5639 5640 5650 5659 5661 5663 5662 5659 5659 5659 5657 5653 5646 5650 5653 5654 5658 5660 5662 5663 5664 5665 5667 5669 5671 5673 5675 5677 5677 5678 5679 5679 5680 5680 5680 5681 5681 5681 5682 5681 5681 5681 5681 5681 5681 5681 5681
5635 5634 5633 5639 5640 5644 5648 5651 5647 5644 5642 5642 5647 5642 5639 5639 5642 5645 5648 5650 5652 5653 5655 5656 5658 5661 5663 5665 5667 5669 5670 5671 5672 5673 5673 5674 5674 5675 5675 5676 5676 5676 5676 5675 5675 5676 5676 5676 5676
5630 5625 5626 5628 5629 5630 5634 5634 5633 5629 5628 5632 5634 5627 5623 5625 5632 5635 5638 5640 5642 5644 5645 5647 5649 5651 5654 5656 5659 5661 5663 5664 5665 5666 5667 5667 5668 5669 5669 5670 5670 5670 5670 5670 5670 5670 5671 5671 5672
5623 5610 5609 5615 5616 5616 5618 5616 5617 5618 5616 5616 5615 5611 5613 5616 5620 5622 5625 5628 5630 5633 5635 5637 5640 5642 5645 5648 5650 5652 5655 5656 5657 5658 5660 5661 5661 5662 5663 5663 5664 5664 5664 5665 5664 5664 5665 5666 5666
5606 5595 5600 5607 5604 5600 5601 5601 5601 5601 5599 5599 5599 5600 5602 5604 5607 5609 5611 5615 5618 5621 5624 5628 5630 5633 5636 5639 5641 5643 5646 5647 5649 5650 5652 5653 5655 5655 5656 5656 5657 5658 5658 5658 5659 5659 5659 5660 5661
5592 5585 5592 5593 5591 5589 5587 5587 5589 5586 5582 5585 5585 5586 5588 5591 5594 5597 5600 5603 5606 5609 5613 5617 5620 5623 5626 5629 5631 5634 5636 5639 5641 5642 5644 5646 5647 5648 5649 5649 5649 5650 5650 5651 5652 5652 5653 5654 5655
5579 5578 5581 5578 5578 5576 5574 5574 5572 5572 5572 5574 5575 5577 5578 5579 5581 5584 5587 5590 5594 5598 5602 5606 5610 5613 5616 5619 5621 5624 5627 5629 5632 5634 5636 5638 5639 5640 5640 5641 5642 5643 5643 5644 5645 5646 5647 5649 5649
5568 5567 5569 5567 5565 5563 5563 5560 5559 5560 5563 5564 5565 5566 5566 5568 5570 5573 5576 5579 5582 5586 5591 5595 5599 5603 5606 5609 5611 5614 5617 5619 5621 5624 5626 5629 5630 5632 5632 5633 5635 5635 5636 5637 5638 5639 5641 5642 5643
5560 5559 5558 5558 5556 5554 5551 5550 5548 5550 5553 5553 5554 5554 5555 5556 5558 5560 5563 5566 5571 5575 5579 5584 5588 5592 5595 5598 5601 5603 5607 5610 5612 5614 5616 5619 5621 5623 5624 5625 5626 5627 5628 5630 5631 5632 5633 5634 5636
5554 5548 5546 5547 5548 5547 5542 5537 5538 5542 5543 5542 5543 5544 5544 5544 5545 5547 5550 5554 5559 5564 5568 5573 5577 5581 5584 5588 5591 5594 5597 5600 5603 5604 5607 5609 5612 5614 5616 5617 5618 5619 5620 5622 5623 5624 5625 5626 5627
5545 5540 5534 5541 5541 5539 5529 5525 5533 5534 5533 5532 5533 5533 5532 5532 5534 5536 5539 5542 5547 5551 5556 5561 5565 5569 5573 5577 5581 5584 5587 5590 5593 5595 5597 5600 5602 5604 5606 5608 5610 5612 5613 5614 5615 5616 5617 5617 5617
5531 5524 5526 5530 5534 5530 5521 5517 5522 5524 5523 5521 5521 5522 5522 5522 5523 5525 5528 5531 5534 5538 5543 5549 5554 5558 5562 5566 5570 5574 5577 5580 5583 5586 5588 5591 5593 5595 5597 5599 5601 5603 5605 5606 5607 5608 5609 5608 5609
5512 5514 5517 5516 5521 5518 5510 5511 5513 5512 5512 5510 5510 5510 5511 5511 5512 5514 5516 5519 5523 5527 5531 5537 5542 5547 5551 5556 5560 5564 5568 5570 5573 5576 5578 5581 5583 5585 5587 5590 5592 5593 5594 5595 5597 5598 5599 5600 5600
5509 5506 5504 5508 5513 5506 5502 5503 5504 5502 5500 5500 5499 5499 5500 5501 5502 5503 5506 5508 5512 5516 5520 5525 5530 5536 5540 5545 5549 5552 5556 5560 5563 5566 5569 5572 5574 5575 5578 5580 5582 5583 5584 5586 5587 5589 5589 5590 5591
5502 5497 5497 5501 5504 5498 5494 5495 5497 5494 5491 5490 5490 5488 5488 5490 5491 5492 5494 5498 5501 5504 5509 5514 5520 5525 5530 5535 5539 5542 5546 5549 5553 5556 5559 5562 5564 5566 5568 5570 5572 5573 5574 5576 5577 5578 5579 5579 5581
5496 5489 5486 5485 5489 5492 5487 5486 5490 5489 5486 5483 5481 5479 5479 5480 5479 5481 5483 5486 5489 5494 5498 5504 5508 5514 5519 5524 5528 5532 5535 5538 5541 5545 5548 5551 5553 5556 5559 5561 5562 5564 5565 5566 5567 5569 5570 5569 5571
5484 5488 5484 5480 5473 5473 5478 5466 5483 5479 5475 5472 5468 5467 5467 5468 5469 5470 5472 5475 5478 5482 5487 5493 5497 5502 5507 5513 5516 5520 5524 5526 5529 5534 5538 5541 5543 5546 5549 5551 5553 5554 5555 5556 5557 5559 5560 5561 5562
5475 5480 5477 5474 5468 5464 5469 5459 5468 5471 5466 5461 5457 5456 5456 5457 5459 5460 5462 5465 5468 5472 5475 5481 5486 5491 5496 5500 5504 5508 5512 5516 5518 5523 5527 5530 5533 5535 5538 5540 5542 5543 5544 5545 5546 5548 5549 5551 5553
5473 5473 5474 5469 5462 5453 5464 5458 5460 5457 5458 5453 5449 5447 5447 5447 5448 5450 5452 5455 5458 5461 5464 5469 5474 5479 5484 5488 5493 5498 5502 5505 5508 5511 5515 5518 5521 5524 5527 5529 5531 5532 5534 5535 5536 5538 5540 5541 5543
5463 5456 5455 5452 5451 5456 5463 5454 5447 5448 5449 5446 5441 5438 5437 5437 5437 5439 5441 5444 5446 5450 5453 5456 5461 5467 5472 5476 5481 5486 5491 5494 5498 5501 5504 5507 5509 5512 5515 5518 5520 5522 5524 5524 5526 5527 5529 5531 5532
5452 5447 5435 5432 5442 5450 5453 5444 5441 5439 5437 5435 5433 5430 5429 5427 5427 5428 5432 5434 5436 5439 5442 5446 5450 5455 5460 5466 5470 5474 5479 5484 5487 5490 5493 5496 5499 5502 5504 5507 5509 5511 5513 5514 5515 5517 5518 5520 5521
5443 5437 5435 5425 5428 5426 5439 5443 5437 5434 5428 5424 5423 5420 5418 5417 5418 5419 5422 5425 5427 5429 5432 5436 5440 5444 5448 5453 5458 5462 5467 5472 5476 5479 5483 5485 5488 5491 5493 5496 5498 5500 5501 5503 5505 5506 5507 5509 5510
5433 5431 5424 5419 5419 5424 5438 5442 5429 5417 5414 5413 5412 5409 5409 5410 5410 5412 5413 5415 5418 5421 5424 5427 5431 5434 5437 5442 5447 5452 5456 5460 5463 5467 5470 5474 5477 5480 5483 5485 5487 5488 5490 5492 5494 5495 5496 5498 5499
5421 5418 5414 5415 5417 5414 5416 5422 5420 5413 5408 5404 5403 5403 5403 5403 5402 5402 5405 5407 5409 5412 5415 5419 5422 5425 5428 5431 5434 5439 5443 5447 5451 5456 5460 5462 5466 5470 5471 5474 5475 5477 5478 5480 5482 5484 5485 5486 5487
5417 5408 5401 5398 5402 5406 5404 5408 5410 5407 5403 5400 5398 5397 5397 5396 5396 5396 5397 5399 5401 5404 5406 5409 5412 5414 5417 5420 5424 5428 5433 5436 5440 5444 5448 5451 5454 5458 5460 5463 5464 5465 5466 5468 5470 5472 5473 5475 5476